Regional Weather Roundup
Issued by NWS Green Bay, WI

Home | Current Version | Previous Version | Graphics & Text | Print | Product List | Glossary Off
Versions: 1 2 3 4 5 6 7 8 9 10 11 12 13 14 15 16 17 18 19 20 21 22 23 24 25 26 27 28 29 30 31 32 33 34 35 36 37 38 39 40 41 42 43 44 45 46 47 48 49 50

000
ASUS43 KGRB 231311
RWRGRB

NORTH-CENTRAL AND NORTHEAST WISCONSIN REGIONAL WEATHER ROUNDUP
NATIONAL WEATHER SERVICE GREEN BAY WI
800 AM CDT TUE MAY 23 2017

WIZ005-009-010>012-018-019-231400-
NORTH CENTRAL WISCONSIN

CITY           SKY/WX    TMP DP  RH WIND       PRES   REMARKS
IRONWOOD       CLOUDY    46  45  96 CALM      29.86R
MANITOWISH WTR CLOUDY    45  45 100 CALM      29.84R
ARBOR VITAE    LGT RAIN  46  45  96 CALM      29.84R
EAGLE RIVER    DRIZZLE   46  46 100 CALM      29.84R
LAND O LAKES   LGT RAIN  44  44 100 CALM      29.86R
RHINELANDER    LGT RAIN  47  46  97 E5        29.84R
PHILLIPS       RAIN      46  45  97 CALM      29.82S
ANTIGO         CLOUDY    48  46  91 E8        29.83S
TOMAHAWK       RAIN      45  44  97 CALM      29.84R
MERRILL        CLOUDY    47  47 100 NE5       29.83R
$$

WIZ013-073-231400-
NORTHEAST WISCONSIN

CITY           SKY/WX    TMP DP  RH WIND       PRES   REMARKS
IRON MOUNTAIN  LGT RAIN  45  41  86 CALM      29.84R
MARINETTE      LGT RAIN  47  45  93 N7        29.85
OCONTO         CLOUDY    49  47  92 NE3       29.82F
$$

WIZ017-030-035>037-045-231400-
CENTRAL WISCONSIN

CITY           SKY/WX    TMP DP  RH WIND       PRES   REMARKS
MEDFORD        DRIZZLE   46  46  97 E5        29.81S
WAUSAU         CLOUDY    49  46  90 NE5       29.80R
MOSINEE        CLOUDY    48  48 100 NE6       29.80S
MARSHFIELD     CLOUDY    49  46  90 NE8       29.78S
WISC RAPIDS    CLOUDY    52  47  83 E5        29.79S
STEVENS POINT  CLOUDY    50  45  83 E7        29.79S
WAUPACA        CLOUDY    55  48  77 E5        29.79S
SHAWANO        CLOUDY    52  47  84 NE6       29.82F
CLINTONVILLE   CLOUDY    50  46  87 NE7       29.80S
WAUTOMA        CLOUDY    52  51  97 NE6       29.78S
$$

WIZ038-039-048-051-231400-
FOX VALLEY

CITY           SKY/WX    TMP DP  RH WIND       PRES   REMARKS
NWS GREEN BAY  CLOUDY    55  48  77 E7        29.80R
APPLETON       CLOUDY    54  43  66 VRB5      29.78S
OSHKOSH        CLOUDY    57  54  89 SE5       29.77F
FOND DU LAC    CLOUDY    58  53  84 S5        29.78S
$$

WIZ022-050-052-231400-
EAST CENTRAL WISCONSIN

CITY           SKY/WX    TMP DP  RH WIND       PRES   REMARKS
EPHRAIM        CLOUDY    47  46  98 E3        29.83S
WASHINGTON ISL CLOUDY    47  46  97 NE3       29.83S
STURGEON BAY   CLOUDY    50  46  86 NE6       29.83R
MANITOWOC      CLOUDY    50  46  86 NE3       29.80F
SHEBOYGAN      CLOUDY    54  52  93 CALM      29.78F
$$

LMZ563-521-522-541>543-231400-
LAKESHORE

STATION/POSITION TIME  TEMP    WIND        PRES    VSBY  WAVE
                       AIR SEA DIR/SP/G                  HT/PER
                 (UTC) (F)     (DEG/KT/KT) (MB)    (MI)  (FT/S)
SHEBOYGAN LKSHOR 1300   48      10/  9/ 10 1008.7S
KEWAUNEE LKSHORE 1248   47      40/  7/  8 1009.0F
ALGOMA MARINA    1215           60/  8/ 10   N/A
NORTHPORT PIER   1240   47      10/  2/  3 1010.5R
N MID LAKE BUOY  1250   41 39   70/  4/  6 1011.8R         1/ 5
SISTER BAY LKSHO 1206   48        CALM       N/A
CHAMBERS ISLAND  1240   47      30/  7/  8 1009.8F
MENOMINEE LKSHOR 1248          360/  8/  8 1009.7R
$$



USA.gov is the U.S. government's official web portal to all federal, state and local government web resources and services.